Regional Weather Roundup
Issued by NWS

Home | Current Version | Previous Version | Text Only | Print | Product List | Glossary On
Versions: 1 2 3 4 5 6 7 8 9 10 11 12 13 14 15 16 17 18 19 20 21 22 23 24 25 26 27 28 29 30 31 32 33 34 35 36 37 38 39 40 41 42 43 44 45 46 47 48 49 50
000
ASUS42 KKEY 260110
RWRKEY

FLORIDA REGIONAL WEATHER ROUNDUP FOR THE FLORIDA KEYS
NATIONAL WEATHER SERVICE KEY WEST FLORIDA
900 PM EDT MON JUL 25 2016

...SOUTH FLORIDA AND THE KEYS...

CITY           SKY/WX    TMP DP  RH WIND       PRES   REMARKS
FORT MYERS     CLOUDY    80  75  84 E6        30.05R
SW REGIONAL AP MOCLDY    80  73  79 CALM      30.05R
NAPLES         PTCLDY    80  76  87 NE6       30.04R
MIAMI          PTCLDY    84  74  71 E10       30.05R HX  91
WEST KENDALL   CLEAR     84  75  74 E8        30.05R HX  92
HOMESTEAD      CLEAR     83  75  77 E3        30.05R HX  90
MARATHON       CLEAR     84  77  79 E7        30.03R HX  94
BOCA CHICA NAS PTCLDY    84  76  76 E12       30.03  HX  93
KEY WEST INTL  PTCLDY    85  78  80 E8        30.03R HX  96

...INTERNATIONAL WEATHER...

CITY           SKY/WX    TMP DP  RH WIND       PRES   REMARKS
NASSAU BAHAMAS NOT AVBL
CANCUN MEXICO  MOCLDY    84  79  84 NE3       29.96S HX  96
COZUMEL MEXICO PTCLDY    81  77  89 E5        29.96R

ADJACENT COASTAL WATERS...

STATION/POSITION TIME  SKY/WX   TEMP    WIND        PRES    WAVE
                                AIR SEA DIR/SP/G            HT/PER
                 (UTC)          (F)     (DEG/KT/KT) (MB)    (FT/S)
PULASKI SHOAL LI 0100            85      80/  8/ 10 1016.8R
SAND KEY         0050            85     110/ 12/ 14 1017.0R
LONG KEY         0000            85 88  120/ 11/ 13 1016.8R
FOWEY ROCKS      0000            85 85  110/  7/  7 1017.9R

$$



USA.gov is the U.S. government's official web portal to all federal, state and local government web resources and services.